Phuket, Thailand

12:34 AM +07 on May 22, 2018 (GMT +0700)
Phuket International

Weather History for VTSP - June, 2013

Change the Weather History Date:

Sunday, June 16, 2013

  Actual Average Record
Temperature  
Mean Temperature 78 °F -  
Max Temperature 84 °F 88 °F 96 °F (1997)
Min Temperature 73 °F 78 °F 73 °F (1999)
Cooling Degree Days 14    
Growing Degree Days 28 (Base 50)    
Moisture  
Dew Point 75 °F    
Average Humidity 86    
Maximum Humidity 94    
Minimum Humidity 78    
Precipitation  
Precipitation 1.61 in 0.37 in - ()
Sea Level Pressure  
Sea Level Pressure 29.72 in    
Wind  
Wind Speed 9 mph ()    
Max Wind Speed 24 mph    
Max Gust Speed 55 mph    
Visibility 3.9 miles    
Events Rain    
Averages and records for this station are not official NWS values.
T = Trace of Precipitation, MM = Missing Value Source: Averaged Metar Reports

Daily Weather History Graph

Daily Weather History Graph

Search for Another Location

Airport or City:

Astronomy

Jun. 16, 2013 Rise Set
Actual Time 6:09 AM +07 6:45 PM +07
Civil Twilight 5:46 AM +07 7:08 PM +07
Nautical Twilight 5:19 AM +07 7:34 PM +07
Astronomical Twilight 4:52 AM +07 8:02 PM +07
Moon 12:01 PM +07 (6/16) No Moon Set
Length of Visible Light 13h 21m
Length of Day
12h 35m
Waxing Crescent, 45% of the Moon is Illuminated
Jun 16
Waxing Crescent
Jun 17
First Quarter
Jun 23
Full
Jun 30
Last Quarter
Jul 8
New

Hourly Weather History & Observations

Time (+07) Temp. Heat Index Dew Point Humidity Pressure Visibility Wind Dir Wind Speed Gust Speed Precip Events Conditions
12:00 AM 78.8 °F - 75.2 °F 89% 29.77 in 4.3 mi Variable 6.9 mph - N/A Rain Light Rain
12:30 AM 78.8 °F - 73.4 °F 83% 29.77 in 4.3 mi West 16.1 mph - N/A Rain Light Rain
1:00 AM 80 °F - 76 °F 84% 29.71 in 6 mi Calm Calm - - Rain Light Rain
1:00 AM 78.8 °F - 75.2 °F 89% 29.74 in 5.0 mi Variable 3.5 mph - N/A   Mostly Cloudy
1:30 AM 77.0 °F - 75.2 °F 94% 29.74 in 5.0 mi Calm Calm - N/A   Mostly Cloudy
2:00 AM 77.0 °F - 75.2 °F 94% 29.71 in 5.0 mi Variable 2.3 mph - N/A   Mostly Cloudy
2:30 AM 75.2 °F - 73.4 °F 94% 29.74 in 1.9 mi WNW 24.2 mph 55.2 mph N/A Rain Rain
3:00 AM 75.2 °F - 73.4 °F 94% 29.71 in 4.3 mi NNW 6.9 mph - N/A Rain Light Rain
3:30 AM 75.2 °F - 73.4 °F 94% 29.71 in 4.3 mi NNW 5.8 mph - N/A Rain Light Rain
4:00 AM 75.2 °F - 73.4 °F 94% 29.71 in 4.3 mi Calm Calm - N/A Rain Light Rain
4:30 AM 77.0 °F - 73.4 °F 89% 29.71 in 4.3 mi Variable 2.3 mph - N/A   Mostly Cloudy
5:00 AM 75.2 °F - 73.4 °F 94% 29.71 in 4.3 mi Calm Calm - N/A Rain Light Rain
5:30 AM 75.2 °F - 73.4 °F 94% 29.71 in 5.0 mi WNW 4.6 mph - N/A   Mostly Cloudy
6:00 AM 77.0 °F - 73.4 °F 89% 29.71 in 5.0 mi Variable 2.3 mph - N/A   Mostly Cloudy
6:30 AM 78.8 °F - 75.2 °F 89% 29.74 in 4.3 mi NW 12.7 mph - N/A Rain Light Rain
7:00 AM 78 °F - 76 °F 92% 29.70 in 3 mi West 5.8 mph - - Rain Light Rain
7:00 AM 77.0 °F - 75.2 °F 94% 29.74 in 1.9 mi WSW 8.1 mph - N/A Rain Rain
7:30 AM 77.0 °F - 73.4 °F 89% 29.74 in 0.9 mi NNW 8.1 mph - N/A Rain Heavy Rain
8:00 AM 77.0 °F - 73.4 °F 89% 29.74 in 1.9 mi NW 12.7 mph 25.3 mph N/A Rain Rain
8:30 AM 77.0 °F - 73.4 °F 89% 29.74 in 4.3 mi NW 12.7 mph - N/A Rain Light Rain
9:00 AM 78.8 °F - 75.2 °F 89% 29.77 in 4.3 mi NW 13.8 mph - N/A Rain Light Rain
9:30 AM 78.8 °F - 75.2 °F 89% 29.77 in 1.9 mi WNW 13.8 mph - N/A Rain Heavy Rain
10:00 AM 78.8 °F - 75.2 °F 89% 29.77 in 4.3 mi West 9.2 mph - N/A   Mostly Cloudy
10:30 AM 82.4 °F 90.9 °F 77.0 °F 84% 29.74 in 4.3 mi West 6.9 mph - N/A   Mostly Cloudy
11:00 AM 86.0 °F 99.3 °F 78.8 °F 79% 29.74 in 3.1 mi West 13.8 mph - N/A   Mostly Cloudy
11:30 AM 78.8 °F - 73.4 °F 83% 29.77 in 1.9 mi West 21.9 mph - N/A Rain Rain
12:00 PM 80.6 °F 86.2 °F 75.2 °F 84% 29.74 in 4.3 mi West 12.7 mph - N/A   Mostly Cloudy
12:30 PM 80.6 °F 86.2 °F 75.2 °F 84% 29.74 in 4.3 mi WSW 6.9 mph - N/A   Mostly Cloudy
1:00 PM 82 °F - 76 °F 78% 29.71 in 4 mi West 5.8 mph - -   Mist
1:00 PM 82.4 °F 89.5 °F 75.2 °F 79% 29.71 in 3.1 mi WSW 10.4 mph - N/A   Mostly Cloudy
1:30 PM 78.8 °F - 75.2 °F 89% 29.71 in 3.1 mi West 16.1 mph - N/A Rain Light Rain
2:00 PM 80.6 °F 86.2 °F 75.2 °F 84% 29.71 in 4.3 mi West 16.1 mph - N/A   Mostly Cloudy
2:30 PM 82.4 °F 89.5 °F 75.2 °F 79% 29.68 in 4.3 mi West 13.8 mph - N/A   Mostly Cloudy
3:00 PM 82.4 °F 89.5 °F 75.2 °F 79% 29.68 in 4.3 mi West 17.3 mph - N/A   Mostly Cloudy
3:30 PM 82.4 °F 89.5 °F 75.2 °F 79% 29.68 in 4.3 mi West 15.0 mph - N/A   Mostly Cloudy
4:00 PM 82.4 °F 89.5 °F 75.2 °F 79% 29.68 in 4.3 mi West 19.6 mph - N/A   Mostly Cloudy
4:30 PM 82.4 °F 89.5 °F 75.2 °F 79% 29.68 in 4.3 mi West 15.0 mph - N/A   Mostly Cloudy
5:00 PM 82.4 °F 89.5 °F 75.2 °F 79% 29.68 in 4.3 mi West 13.8 mph - N/A   Mostly Cloudy
5:30 PM 82.4 °F 89.5 °F 75.2 °F 79% 29.68 in 4.3 mi West 12.7 mph - N/A   Mostly Cloudy
6:00 PM 82.4 °F 89.5 °F 75.2 °F 79% 29.68 in 4.3 mi West 13.8 mph - N/A   Mostly Cloudy
6:30 PM 82.4 °F 89.5 °F 75.2 °F 79% 29.71 in 4.3 mi West 16.1 mph - N/A   Mostly Cloudy
7:00 PM 83 °F - 77 °F 79% 29.66 in 4 mi West 12.7 mph - - Rain Light Rain
7:00 PM 82.4 °F 89.5 °F 75.2 °F 79% 29.71 in 4.3 mi West 17.3 mph - N/A   Mostly Cloudy
7:30 PM 82.4 °F 89.5 °F 75.2 °F 79% 29.71 in 4.3 mi West 15.0 mph - N/A   Mostly Cloudy
8:00 PM 80.6 °F 86.2 °F 75.2 °F 84% 29.74 in 4.3 mi West 10.4 mph - N/A Rain Light Rain
8:30 PM 77.0 °F - 75.2 °F 94% 29.74 in 3.1 mi West 19.6 mph - N/A Rain Rain
9:00 PM 78.8 °F - 73.4 °F 83% 29.74 in 4.3 mi West 9.2 mph 20.7 mph N/A Rain Light Rain
9:30 PM 77.0 °F - 73.4 °F 89% 29.77 in 1.9 mi West 16.1 mph - N/A Rain Rain
10:00 PM 77.0 °F - 73.4 °F 89% 29.77 in 1.9 mi WSW 16.1 mph 27.6 mph N/A Rain Rain
10:30 PM 77.0 °F - 73.4 °F 89% 29.77 in 4.3 mi Variable 1.2 mph - N/A   Mostly Cloudy
11:30 PM 77.0 °F - 75.2 °F 94% 29.77 in 4.3 mi Variable 2.3 mph - N/A   Mostly Cloudy